This is the latest recevied weather packets stored in our database for station/object OM2RC-6. If no packets are shown the sender has not sent any weather packets the latest 1 day(s).
| Time | Temp. | Humidity | Pressure | Rain* | Wind** | Luminosity | Snow |
|---|---|---|---|---|---|---|---|
| 1778004575 | 18.33° C | 63% | 1007.6 hPa | - | 3.13 m/s, 162° | - | - |
| 1778004314 | 18.33° C | 60% | 1007.8 hPa | - | 5.36 m/s, 151° | - | - |
| 1778003933 | 18.33° C | 59% | 1007.7 hPa | - | 3.13 m/s, 174° | - | - |
| 1778003614 | 18.89° C | 56% | 1007.7 hPa | - | 2.24 m/s, 174° | - | - |
| 1778003295 | 18.89° C | 55% | 1007.7 hPa | - | 2.68 m/s, 155° | - | - |
| 1778002976 | 18.89° C | 54% | 1007.7 hPa | - | 3.13 m/s, 154° | - | - |
| 1778002657 | 19.44° C | 54% | 1007.6 hPa | - | 2.24 m/s, 171° | - | - |
| 1778002338 | 19.44° C | 54% | 1007.7 hPa | - | 2.68 m/s, 157° | - | - |
| 1778001120 | 20.56° C | 50% | 1007.3 hPa | - | 4.92 m/s, 157° | - | - |
| 1778000818 | 20.56° C | 50% | 1007.2 hPa | - | 5.36 m/s, 152° | - | - |
| 1778000517 | 20.56° C | 51% | 1007.3 hPa | - | 5.81 m/s, 152° | - | - |
| 1777999912 | 20.56° C | 53% | 1007.4 hPa | - | 5.36 m/s, 157° | - | - |
| 1777999611 | 20.56° C | 54% | 1007.6 hPa | - | 4.02 m/s, 162° | - | - |
| 1777999310 | 21.11° C | 53% | 1007.6 hPa | - | 4.02 m/s, 162° | - | - |
| 1777999009 | 21.11° C | 52% | 1007.6 hPa | - | 6.26 m/s, 169° | - | - |
| 1777998708 | 21.11° C | 51% | 1007.3 hPa | - | 7.6 m/s, 164° | - | - |
| 1777998406 | 21.11° C | 51% | 1007.8 hPa | - | 5.81 m/s, 159° | - | - |
| 1777998105 | 21.11° C | 51% | 1007.5 hPa | - | 6.71 m/s, 160° | - | - |
| 1777997803 | 21.67° C | 49% | 1007.7 hPa | - | 7.15 m/s, 162° | - | - |
| 1777997500 | 22.22° C | 48% | 1007.7 hPa | - | 4.02 m/s, 158° | - | - |
| 1777997198 | 22.22° C | 49% | 1007.8 hPa | - | 6.71 m/s, 161° | - | - |
| 1777996893 | 22.22° C | 48% | 1007.8 hPa | - | 7.15 m/s, 164° | - | - |
| 1777996593 | 22.22° C | 47% | 1008 hPa | - | 7.6 m/s, 161° | - | - |
| 1777996289 | 22.78° C | 46% | 1007.5 hPa | - | 6.26 m/s, 140° | - | - |
| 1777995987 | 23.33° C | 47% | 1007.6 hPa | - | 6.26 m/s, 162° | - | - |
* Rain since midnight (hover to see other rain measurements)
** Current wind speed in m/s (hover to see current wind gust speed)